Weather Roundup
Issued by NWS Chicago, IL

Home | Current Version | Previous Version | Graphics & Text | Print | Product List | Glossary On
Versions: 1 2 3 4 5 6 7 8 9 10 11 12 13 14 15 16 17 18 19 20 21 22 23 24 25 26 27 28 29 30 31 32 33 34 35 36 37 38 39 40 41 42 43 44 45 46 47 48 49 50
000
NZUS59 KLOT 310406
HRRLOT

CHICAGO AREA WEATHER ROUNDUP
NATIONAL WEATHER SERVICE CHICAGO/ROMEOVILLE IL
1100 PM CDT THU OCT 30 2014

NOTE: "FAIR" INDICATES FEW OR NO CLOUDS BELOW 12,000 FEET WITH NO
SIGNIFICANT WEATHER AND/OR OBSTRUCTIONS TO VISIBILITY.

* THESE STATIONS ARE NOT UNDER NWS QUALITY CONTROL. THEY ALSO MAY NOT
  REPORT WEATHER SUCH AS PRECIPITATION OR FOG.

ILZ005-006-012>014-019>023-310500-
NORTHEAST ILLINOIS

CITY           SKY/WX    TMP DP  RH WIND       PRES   REMARKS
OHARE          CLOUDY    46  36  68 W7        30.04F
MIDWAY         CLOUDY    48  37  65 W7        30.05S
AURORA         CLOUDY    43  36  76 W6        30.07S
LANSING*       CLOUDY    45  37  74 W3        30.05F
JOLIET*        MOCLDY    44  36  73 W5        30.06F
WAUKEGAN       CLOUDY    45  35  68 VRB3      30.03S
DUPAGE AIRPORT CLOUDY    45  37  73 W7        30.05S
WHEELING       CLOUDY    48  35  60 W6        30.06S
KANKAKEE*      MOCLDY    41  38  90 W3        30.07S
MORRIS*        CLOUDY    44  39  84 W5        30.06S
LEWIS AIRPORT* MOCLDY    44  37  76 W5        30.06S
NORTHERLY IS     N/A     48  36  63 W5          N/A
$$

WIZ051-052-058>065-066-070>072-310500-
SOUTHEAST WISCONSIN

CITY           SKY/WX    TMP DP  RH WIND       PRES   REMARKS
MILWAUKEE      LGT RAIN  48  36  63 W9        30.02F
KENOSHA*       CLOUDY    46  37  71 W9        30.03F
RACINE*        LGT RAIN  47  35  63 W8        30.04S
BURLINGTON     DRIZZLE   44  36  73 W6        30.03F
WAUKESHA       DRIZZLE   43  36  75 W10       30.03S
WEST BEND      LGT RAIN  43  34  70 NW15G21   30.02S
$$

INZ001>003-010>013-019-020-310500-
NORTHWEST INDIANA

CITY           SKY/WX    TMP DP  RH WIND       PRES   REMARKS
GARY*          MOCLDY    48  37  65 W5        30.05F
MICHIGAN CITY* NOT AVBL
RENSSELAER*    NOT AVBL
VALPARAISO     MOCLDY    44  36  73 W6        30.04F
$$

LMZ740>746-310500-
SOUTHERN LAKE MICHIGAN

STATION/POSITION TIME  SKY/WX   TEMP WIND        PRES    VSBY
                                AIR  DIR/SP/G
                 (UTC)          (F)  (DEG/KT/KT) (MB)    (MI)
HARRISON CRIB    0300            49  260/ 11/ 12   N/A
BURNHAM HARBOR   0400            48  280/  4/  7   N/A
CALUMET HARBOR   0300            48  250/  4/  6 1016.2
BURNS HARBOR     NOT AVBL
MICHIGAN CITY    0400            50  250/ 14/ 17   N/A
$$

ABBREVIATIONS USED IN REMARKS
   TC - TEMPERATURE IN CELSIUS
  WCI - WIND CHILL INDEX
   HX - HEAT INDEX
  VSB - VISIBILITY
$$



USA.gov is the U.S. government's official web portal to all federal, state and local government web resources and services.